Year,Month,Day,Hour,Minute,Value (Times are PST for temperature in C)
2008,04,11,00,00,6.40
2008,04,11,00,01,6.40
2008,04,11,00,02,6.40
2008,04,11,00,03,6.40
2008,04,11,00,04,6.40
2008,04,11,00,05,6.40
2008,04,11,00,06,6.40
2008,04,11,00,07,6.30
2008,04,11,00,08,6.30
2008,04,11,00,09,6.30
2008,04,11,00,10,6.40
2008,04,11,00,11,6.40
2008,04,11,00,12,6.40
2008,04,11,00,13,6.40
2008,04,11,00,14,6.40
2008,04,11,00,15,6.40
2008,04,11,00,16,6.40
2008,04,11,00,17,6.40
2008,04,11,00,18,6.40
2008,04,11,00,19,6.40
2008,04,11,00,20,6.40
2008,04,11,00,21,6.40
2008,04,11,00,22,6.40
2008,04,11,00,23,6.40
2008,04,11,00,24,6.40
2008,04,11,00,25,6.40
2008,04,11,00,26,6.40
2008,04,11,00,27,6.40
2008,04,11,00,28,6.40
2008,04,11,00,29,6.40
2008,04,11,00,30,6.40
2008,04,11,00,31,6.40
2008,04,11,00,32,6.40
2008,04,11,00,33,6.40
2008,04,11,00,34,6.40
2008,04,11,00,35,6.40
2008,04,11,00,36,6.40
2008,04,11,00,37,6.40
2008,04,11,00,38,6.40
2008,04,11,00,39,6.40
2008,04,11,00,40,6.40
2008,04,11,00,41,6.40
2008,04,11,00,42,6.30
2008,04,11,00,43,6.30
2008,04,11,00,44,6.30
2008,04,11,00,45,6.30
2008,04,11,00,46,6.20
2008,04,11,00,47,6.20
2008,04,11,00,48,6.20
2008,04,11,00,49,6.20
2008,04,11,00,50,6.20
2008,04,11,00,51,6.10
2008,04,11,00,52,6.10
2008,04,11,00,53,6.10
2008,04,11,00,54,6.10
2008,04,11,00,55,6.00
2008,04,11,00,56,6.00
2008,04,11,00,57,6.00
2008,04,11,00,58,6.00
2008,04,11,00,59,6.00
2008,04,11,01,00,6.00
2008,04,11,01,01,6.00
2008,04,11,01,02,5.90
2008,04,11,01,03,5.90
2008,04,11,01,04,5.90
2008,04,11,01,05,5.80
2008,04,11,01,06,5.80
2008,04,11,01,07,5.70
2008,04,11,01,08,5.70
2008,04,11,01,09,5.70
2008,04,11,01,10,5.70
2008,04,11,01,11,5.70
2008,04,11,01,12,5.70
2008,04,11,01,13,5.70
2008,04,11,01,14,5.70
2008,04,11,01,15,5.60
2008,04,11,01,16,5.60
2008,04,11,01,17,5.60
2008,04,11,01,18,5.50
2008,04,11,01,19,5.50
2008,04,11,01,20,5.50
2008,04,11,01,21,5.50
2008,04,11,01,22,5.40
2008,04,11,01,23,5.40
2008,04,11,01,24,5.40
2008,04,11,01,25,5.40
2008,04,11,01,26,5.30
2008,04,11,01,27,5.30
2008,04,11,01,28,5.30
2008,04,11,01,29,5.30
2008,04,11,01,30,5.30
2008,04,11,01,31,5.30
2008,04,11,01,32,5.20
2008,04,11,01,33,5.20
2008,04,11,01,34,5.20
2008,04,11,01,35,5.10
2008,04,11,01,36,5.10
2008,04,11,01,37,5.10
2008,04,11,01,38,5.10
2008,04,11,01,39,5.00
2008,04,11,01,40,4.90
2008,04,11,01,41,4.90
2008,04,11,01,42,4.90
2008,04,11,01,43,4.90
2008,04,11,01,44,4.90
2008,04,11,01,45,4.90
2008,04,11,01,46,4.90
2008,04,11,01,47,4.90
2008,04,11,01,48,4.80
2008,04,11,01,49,4.80
2008,04,11,01,50,4.80
2008,04,11,01,51,4.80
2008,04,11,01,52,4.80
2008,04,11,01,53,4.80
2008,04,11,01,54,4.90
2008,04,11,01,55,4.90
2008,04,11,01,56,4.90
2008,04,11,01,57,5.00
2008,04,11,01,58,5.10
2008,04,11,01,59,5.10
2008,04,11,02,00,5.10
2008,04,11,02,01,5.10
2008,04,11,02,02,5.10
2008,04,11,02,03,5.10
2008,04,11,02,04,5.10
2008,04,11,02,05,5.20
2008,04,11,02,06,5.20
2008,04,11,02,07,5.20
2008,04,11,02,08,5.30
2008,04,11,02,09,5.30
2008,04,11,02,10,5.30
2008,04,11,02,11,5.40
2008,04,11,02,12,5.50
2008,04,11,02,13,5.50
2008,04,11,02,14,5.60
2008,04,11,02,15,5.60
2008,04,11,02,16,5.70
2008,04,11,02,17,5.70
2008,04,11,02,18,5.70
2008,04,11,02,19,5.80
2008,04,11,02,20,5.80
2008,04,11,02,21,5.80
2008,04,11,02,22,5.90
2008,04,11,02,23,5.90
2008,04,11,02,24,5.90
2008,04,11,02,25,6.00
2008,04,11,02,26,6.00
2008,04,11,02,27,6.00
2008,04,11,02,28,6.00
2008,04,11,02,29,6.00
2008,04,11,02,30,6.10
2008,04,11,02,31,6.10
2008,04,11,02,32,6.10
2008,04,11,02,33,6.10
2008,04,11,02,34,6.10
2008,04,11,02,35,6.20
2008,04,11,02,36,6.20
2008,04,11,02,37,6.20
2008,04,11,02,38,6.20
2008,04,11,02,39,6.20
2008,04,11,02,40,6.10
2008,04,11,02,41,6.00
2008,04,11,02,42,5.90
2008,04,11,02,43,5.80
2008,04,11,02,44,5.70
2008,04,11,02,45,5.60
2008,04,11,02,46,5.60
2008,04,11,02,47,5.60
2008,04,11,02,48,5.50
2008,04,11,02,49,5.50
2008,04,11,02,50,5.50
2008,04,11,02,51,5.50
2008,04,11,02,52,5.50
2008,04,11,02,53,5.50
2008,04,11,02,54,5.60
2008,04,11,02,55,5.60
2008,04,11,02,56,5.70
2008,04,11,02,57,5.70
2008,04,11,02,58,5.70
2008,04,11,02,59,5.80
2008,04,11,03,00,5.80
2008,04,11,03,01,5.90
2008,04,11,03,02,5.90
2008,04,11,03,03,6.00
2008,04,11,03,04,6.00
2008,04,11,03,05,6.10
2008,04,11,03,06,6.10
2008,04,11,03,07,6.20
2008,04,11,03,08,6.20
2008,04,11,03,09,6.20
2008,04,11,03,10,6.20
2008,04,11,03,11,6.20
2008,04,11,03,12,6.20
2008,04,11,03,13,6.20
2008,04,11,03,14,6.20
2008,04,11,03,15,6.20
2008,04,11,03,16,6.20
2008,04,11,03,17,6.20
2008,04,11,03,18,6.30
2008,04,11,03,19,6.30
2008,04,11,03,20,6.30
2008,04,11,03,21,6.30
2008,04,11,03,22,6.30
2008,04,11,03,23,6.30
2008,04,11,03,24,6.30
2008,04,11,03,25,6.30
2008,04,11,03,26,6.30
2008,04,11,03,27,6.30
2008,04,11,03,28,6.20
2008,04,11,03,29,6.20
2008,04,11,03,30,6.20
2008,04,11,03,31,6.20
2008,04,11,03,32,6.20
2008,04,11,03,33,6.20
2008,04,11,03,34,6.20
2008,04,11,03,35,6.20
2008,04,11,03,36,6.20
2008,04,11,03,37,6.20
2008,04,11,03,38,6.20
2008,04,11,03,39,6.20
2008,04,11,03,40,6.20
2008,04,11,03,41,6.20
2008,04,11,03,42,6.20
2008,04,11,03,43,6.20
2008,04,11,03,44,6.20
2008,04,11,03,45,6.20
2008,04,11,03,46,6.20
2008,04,11,03,47,6.20
2008,04,11,03,48,6.10
2008,04,11,03,49,6.10
2008,04,11,03,50,6.10
2008,04,11,03,51,6.10
2008,04,11,03,52,6.10
2008,04,11,03,53,6.10
2008,04,11,03,54,6.00
2008,04,11,03,55,6.00
2008,04,11,03,56,6.00
2008,04,11,03,57,6.00
2008,04,11,03,58,6.00
2008,04,11,03,59,5.90
2008,04,11,04,00,5.90
2008,04,11,04,01,5.90
2008,04,11,04,02,5.90
2008,04,11,04,03,6.00
2008,04,11,04,04,6.00
2008,04,11,04,05,6.00
2008,04,11,04,06,6.00
2008,04,11,04,07,6.00
2008,04,11,04,08,5.90
2008,04,11,04,09,5.90
2008,04,11,04,10,5.90
2008,04,11,04,11,5.90
2008,04,11,04,12,5.90
2008,04,11,04,13,5.90
2008,04,11,04,14,5.90
2008,04,11,04,15,6.00
2008,04,11,04,16,6.00
2008,04,11,04,17,6.00
2008,04,11,04,18,6.00
2008,04,11,04,19,6.00
2008,04,11,04,20,6.00
2008,04,11,04,21,6.00
2008,04,11,04,22,6.00
2008,04,11,04,23,6.10
2008,04,11,04,24,6.10
2008,04,11,04,25,6.20
2008,04,11,04,26,6.20
2008,04,11,04,27,6.20
2008,04,11,04,28,6.20
2008,04,11,04,29,6.20
2008,04,11,04,30,6.30
2008,04,11,04,31,6.30
2008,04,11,04,32,6.30
2008,04,11,04,33,6.30
2008,04,11,04,34,6.30
2008,04,11,04,35,6.40
2008,04,11,04,36,6.40
2008,04,11,04,37,6.40
2008,04,11,04,38,6.40
2008,04,11,04,39,6.40
2008,04,11,04,40,6.30
2008,04,11,04,41,6.30
2008,04,11,04,42,6.30
2008,04,11,04,43,6.30
2008,04,11,04,44,6.30
2008,04,11,04,45,6.30
2008,04,11,04,46,6.20
2008,04,11,04,47,6.20
2008,04,11,04,48,6.20
2008,04,11,04,49,6.20
2008,04,11,04,50,6.20
2008,04,11,04,51,6.20
2008,04,11,04,52,6.20
2008,04,11,04,53,6.20
2008,04,11,04,54,6.10
2008,04,11,04,55,6.10
2008,04,11,04,56,6.10
2008,04,11,04,57,6.10
2008,04,11,04,58,6.00
2008,04,11,04,59,6.00
2008,04,11,05,00,6.00
2008,04,11,05,01,6.00
2008,04,11,05,02,5.90
2008,04,11,05,03,5.90
2008,04,11,05,04,5.90
2008,04,11,05,05,5.90
2008,04,11,05,06,5.80
2008,04,11,05,07,5.80
2008,04,11,05,08,5.80
2008,04,11,05,09,5.80
2008,04,11,05,10,5.80
2008,04,11,05,11,5.80
2008,04,11,05,12,5.80
2008,04,11,05,13,5.80
2008,04,11,05,14,5.80
2008,04,11,05,15,5.80
2008,04,11,05,16,5.80
2008,04,11,05,17,5.80
2008,04,11,05,18,5.80
2008,04,11,05,19,5.80
2008,04,11,05,20,5.80
2008,04,11,05,21,5.90
2008,04,11,05,22,5.90
2008,04,11,05,23,5.90
2008,04,11,05,24,5.90
2008,04,11,05,25,5.90
2008,04,11,05,26,5.90
2008,04,11,05,27,5.90
2008,04,11,05,28,5.90
2008,04,11,05,29,5.90
2008,04,11,05,30,5.90
2008,04,11,05,31,5.80
2008,04,11,05,32,5.80
2008,04,11,05,33,5.80
2008,04,11,05,34,5.80
2008,04,11,05,35,5.80
2008,04,11,05,36,5.80
2008,04,11,05,37,5.80
2008,04,11,05,38,5.70
2008,04,11,05,39,5.70
2008,04,11,05,40,5.70
2008,04,11,05,41,5.70
2008,04,11,05,42,5.70
2008,04,11,05,43,5.70
2008,04,11,05,44,5.70
2008,04,11,05,45,5.70
2008,04,11,05,46,5.70
2008,04,11,05,47,5.80
2008,04,11,05,48,5.80
2008,04,11,05,49,5.80
2008,04,11,05,50,5.80
2008,04,11,05,51,5.80
2008,04,11,05,52,5.90
2008,04,11,05,53,5.90
2008,04,11,05,54,5.90
2008,04,11,05,55,5.90
2008,04,11,05,56,5.90
2008,04,11,05,57,5.90
2008,04,11,05,58,5.90
2008,04,11,05,59,5.90
2008,04,11,06,00,5.90
2008,04,11,06,01,5.90
2008,04,11,06,02,5.90
2008,04,11,06,03,5.90
2008,04,11,06,04,5.90
2008,04,11,06,05,5.80
2008,04,11,06,06,5.80
2008,04,11,06,07,5.80
2008,04,11,06,08,5.80
2008,04,11,06,09,5.80
2008,04,11,06,10,5.90
2008,04,11,06,11,5.90
2008,04,11,06,12,5.90
2008,04,11,06,13,5.90
2008,04,11,06,14,5.90
2008,04,11,06,15,5.90
2008,04,11,06,16,6.00
2008,04,11,06,17,6.00
2008,04,11,06,18,6.00
2008,04,11,06,19,6.10
2008,04,11,06,20,6.10
2008,04,11,06,21,6.10
2008,04,11,06,22,6.20
2008,04,11,06,23,6.20
2008,04,11,06,24,6.20
2008,04,11,06,25,6.20
2008,04,11,06,26,6.20
2008,04,11,06,27,6.20
2008,04,11,06,28,6.20
2008,04,11,06,29,6.20
2008,04,11,06,30,6.20
2008,04,11,06,31,6.20
2008,04,11,06,32,6.20
2008,04,11,06,33,6.20
2008,04,11,06,34,6.20
2008,04,11,06,35,6.20
2008,04,11,06,36,6.20
2008,04,11,06,37,6.20
2008,04,11,06,38,6.20
2008,04,11,06,39,6.20
2008,04,11,06,40,6.20
2008,04,11,06,41,6.20
2008,04,11,06,42,6.20
2008,04,11,06,43,6.20
2008,04,11,06,44,6.20
2008,04,11,06,45,6.20
2008,04,11,06,46,6.20
2008,04,11,06,47,6.20
2008,04,11,06,48,6.20
2008,04,11,06,49,6.20
2008,04,11,06,50,6.20
2008,04,11,06,51,6.20
2008,04,11,06,52,6.20
2008,04,11,06,53,6.20
2008,04,11,06,54,6.20
2008,04,11,06,55,6.20
2008,04,11,06,56,6.20
2008,04,11,06,57,6.20
2008,04,11,06,58,6.20
2008,04,11,06,59,6.20
2008,04,11,07,00,6.20
2008,04,11,07,01,6.20
2008,04,11,07,02,6.20
2008,04,11,07,03,6.20
2008,04,11,07,04,6.20
2008,04,11,07,05,6.20
2008,04,11,07,06,6.20
2008,04,11,07,07,6.20
2008,04,11,07,08,6.20
2008,04,11,07,09,6.20
2008,04,11,07,10,6.20
2008,04,11,07,11,6.20
2008,04,11,07,12,6.20
2008,04,11,07,13,6.20
2008,04,11,07,14,6.20
2008,04,11,07,15,6.30
2008,04,11,07,16,6.30
2008,04,11,07,17,6.30
2008,04,11,07,18,6.30
2008,04,11,07,19,6.30
2008,04,11,07,20,6.30
2008,04,11,07,21,6.30
2008,04,11,07,22,6.30
2008,04,11,07,23,6.30
2008,04,11,07,24,6.30
2008,04,11,07,25,6.30
2008,04,11,07,26,6.30
2008,04,11,07,27,6.30
2008,04,11,07,28,6.40
2008,04,11,07,29,6.40
2008,04,11,07,30,6.40
2008,04,11,07,31,6.40
2008,04,11,07,32,6.40
2008,04,11,07,33,6.40
2008,04,11,07,34,6.40
2008,04,11,07,35,6.40
2008,04,11,07,36,6.40
2008,04,11,07,37,6.40
2008,04,11,07,38,6.40
2008,04,11,07,39,6.40
2008,04,11,07,40,6.50
2008,04,11,07,41,6.60
2008,04,11,07,42,6.60
2008,04,11,07,43,6.60
2008,04,11,07,44,6.60
2008,04,11,07,45,6.60
2008,04,11,07,46,6.60
2008,04,11,07,47,6.60
2008,04,11,07,48,6.60
2008,04,11,07,49,6.60
2008,04,11,07,50,6.60
2008,04,11,07,51,6.60
2008,04,11,07,52,6.60
2008,04,11,07,53,6.70
2008,04,11,07,54,6.70
2008,04,11,07,55,6.70
2008,04,11,07,56,6.80
2008,04,11,07,57,6.80
2008,04,11,07,58,6.80
2008,04,11,07,59,6.80
2008,04,11,08,00,6.80
2008,04,11,08,01,6.90
2008,04,11,08,02,6.90
2008,04,11,08,03,7.00
2008,04,11,08,04,7.00
2008,04,11,08,05,7.00
2008,04,11,08,06,7.00
2008,04,11,08,07,7.00
2008,04,11,08,08,7.00
2008,04,11,08,09,7.00
2008,04,11,08,10,7.10
2008,04,11,08,11,7.10
2008,04,11,08,12,7.10
2008,04,11,08,13,7.10
2008,04,11,08,14,7.10
2008,04,11,08,15,7.10
2008,04,11,08,16,7.10
2008,04,11,08,17,7.10
2008,04,11,08,18,7.20
2008,04,11,08,19,7.20
2008,04,11,08,20,7.20
2008,04,11,08,21,7.20
2008,04,11,08,22,7.20
2008,04,11,08,23,7.30
2008,04,11,08,24,7.30
2008,04,11,08,25,7.30
2008,04,11,08,26,7.30
2008,04,11,08,27,7.30
2008,04,11,08,28,7.30
2008,04,11,08,29,7.30
2008,04,11,08,30,7.30
2008,04,11,08,31,7.30
2008,04,11,08,32,7.30
2008,04,11,08,33,7.40
2008,04,11,08,34,7.40
2008,04,11,08,35,7.40
2008,04,11,08,36,7.40
2008,04,11,08,37,7.50
2008,04,11,08,38,7.50
2008,04,11,08,39,7.50
2008,04,11,08,40,7.60
2008,04,11,08,41,7.60
2008,04,11,08,42,7.60
2008,04,11,08,43,7.60
2008,04,11,08,44,7.60
2008,04,11,08,45,7.60
2008,04,11,08,46,7.60
2008,04,11,08,47,7.60
2008,04,11,08,48,7.60
2008,04,11,08,49,7.60
2008,04,11,08,50,7.70
2008,04,11,08,51,7.70
2008,04,11,08,52,7.70
2008,04,11,08,53,7.70
2008,04,11,08,54,7.80
2008,04,11,08,55,7.80
2008,04,11,08,56,7.80
2008,04,11,08,57,7.80
2008,04,11,08,58,7.80
2008,04,11,08,59,7.90
2008,04,11,09,00,7.90
2008,04,11,09,01,8.00
2008,04,11,09,02,8.00
2008,04,11,09,03,8.10
2008,04,11,09,04,8.20
2008,04,11,09,05,8.20
2008,04,11,09,06,8.20
2008,04,11,09,07,8.20
2008,04,11,09,08,8.20
2008,04,11,09,09,8.20
2008,04,11,09,10,8.20
2008,04,11,09,11,8.20
2008,04,11,09,12,8.20
2008,04,11,09,13,8.20
2008,04,11,09,14,8.20
2008,04,11,09,15,8.20
2008,04,11,09,16,8.20
2008,04,11,09,17,8.30
2008,04,11,09,18,8.30
2008,04,11,09,19,8.30
2008,04,11,09,20,8.30
2008,04,11,09,21,8.30
2008,04,11,09,22,8.30
2008,04,11,09,23,8.30
2008,04,11,09,24,8.30
2008,04,11,09,25,8.30
2008,04,11,09,26,8.30
2008,04,11,09,27,8.30
2008,04,11,09,28,8.30
2008,04,11,09,29,8.30
2008,04,11,09,30,8.30
2008,04,11,09,31,8.30
2008,04,11,09,32,8.30
2008,04,11,09,33,8.30
2008,04,11,09,34,8.30
2008,04,11,09,35,8.30
2008,04,11,09,36,8.30
2008,04,11,09,37,8.30
2008,04,11,09,38,8.30
2008,04,11,09,39,8.30
2008,04,11,09,40,8.30
2008,04,11,09,41,8.30
2008,04,11,09,42,8.30
2008,04,11,09,43,8.30
2008,04,11,09,44,8.30
2008,04,11,09,45,8.40
2008,04,11,09,46,8.40
2008,04,11,09,47,8.50
2008,04,11,09,48,8.50
2008,04,11,09,49,8.60
2008,04,11,09,50,8.60
2008,04,11,09,51,8.70
2008,04,11,09,52,8.70
2008,04,11,09,53,8.70
2008,04,11,09,54,8.70
2008,04,11,09,55,8.70
2008,04,11,09,56,8.70
2008,04,11,09,57,8.70
2008,04,11,09,58,8.70
2008,04,11,09,59,8.70
2008,04,11,10,00,8.70
2008,04,11,10,01,8.70
2008,04,11,10,02,8.70
2008,04,11,10,03,8.70
2008,04,11,10,04,8.70
2008,04,11,10,05,8.70
2008,04,11,10,06,8.70
2008,04,11,10,07,8.70
2008,04,11,10,08,8.70
2008,04,11,10,09,8.70
2008,04,11,10,10,8.60
2008,04,11,10,11,8.60
2008,04,11,10,12,8.60
2008,04,11,10,13,8.60
2008,04,11,10,14,8.60
2008,04,11,10,15,8.60
2008,04,11,10,16,8.60
2008,04,11,10,17,8.50
2008,04,11,10,18,8.50
2008,04,11,10,19,8.60
2008,04,11,10,20,8.60
2008,04,11,10,21,8.70
2008,04,11,10,22,8.70
2008,04,11,10,23,8.70
2008,04,11,10,24,8.80
2008,04,11,10,25,8.80
2008,04,11,10,26,8.90
2008,04,11,10,27,8.90
2008,04,11,10,28,9.00
2008,04,11,10,29,9.00
2008,04,11,10,30,9.10
2008,04,11,10,31,9.10
2008,04,11,10,32,9.10
2008,04,11,10,33,9.20
2008,04,11,10,34,9.20
2008,04,11,10,35,9.20
2008,04,11,10,36,9.20
2008,04,11,10,37,9.20
2008,04,11,10,38,9.20
2008,04,11,10,39,9.20
2008,04,11,10,40,9.20
2008,04,11,10,41,9.20
2008,04,11,10,42,9.20
2008,04,11,10,43,9.20
2008,04,11,10,44,9.20
2008,04,11,10,45,9.20
2008,04,11,10,46,9.20
2008,04,11,10,47,9.20
2008,04,11,10,48,9.10
2008,04,11,10,49,9.00
2008,04,11,10,50,9.00
2008,04,11,10,51,9.00
2008,04,11,10,52,9.00
2008,04,11,10,53,9.00
2008,04,11,10,54,8.90
2008,04,11,10,55,8.90
2008,04,11,10,56,8.90
2008,04,11,10,57,8.90
2008,04,11,10,58,8.90
2008,04,11,10,59,8.90
2008,04,11,11,00,8.90
2008,04,11,11,01,8.90
2008,04,11,11,02,8.90
2008,04,11,11,03,8.90
2008,04,11,11,04,9.00
2008,04,11,11,05,9.00
2008,04,11,11,06,9.00
2008,04,11,11,07,9.10
2008,04,11,11,08,9.10
2008,04,11,11,09,9.20
2008,04,11,11,10,9.20
2008,04,11,11,11,9.20
2008,04,11,11,12,9.30
2008,04,11,11,13,9.30
2008,04,11,11,14,9.30
2008,04,11,11,15,9.40
2008,04,11,11,16,9.40
2008,04,11,11,17,9.40
2008,04,11,11,18,9.50
2008,04,11,11,19,9.50
2008,04,11,11,20,9.50
2008,04,11,11,21,9.50
2008,04,11,11,22,9.50
2008,04,11,11,23,9.40
2008,04,11,11,24,9.40
2008,04,11,11,25,9.40
2008,04,11,11,26,9.40
2008,04,11,11,27,9.30
2008,04,11,11,28,9.30
2008,04,11,11,29,9.30
2008,04,11,11,30,9.20
2008,04,11,11,31,9.20
2008,04,11,11,32,9.20
2008,04,11,11,33,9.20
2008,04,11,11,34,9.20
2008,04,11,11,35,9.30
2008,04,11,11,36,9.40
2008,04,11,11,37,9.50
2008,04,11,11,38,9.50
2008,04,11,11,39,9.50
2008,04,11,11,40,9.60
2008,04,11,11,41,9.60
2008,04,11,11,42,9.70
2008,04,11,11,43,9.70
2008,04,11,11,44,9.70
2008,04,11,11,45,9.70
2008,04,11,11,46,9.70
2008,04,11,11,47,9.70
2008,04,11,11,48,9.70
2008,04,11,11,49,9.70
2008,04,11,11,50,9.70
2008,04,11,11,51,9.80
2008,04,11,11,52,9.80
2008,04,11,11,53,9.80
2008,04,11,11,54,9.80
2008,04,11,11,55,9.80
2008,04,11,11,56,9.80
2008,04,11,11,57,9.80
2008,04,11,11,58,9.90
2008,04,11,11,59,9.90
2008,04,11,12,00,9.90
2008,04,11,12,01,9.90
2008,04,11,12,02,9.90
2008,04,11,12,03,9.90
2008,04,11,12,04,9.90
2008,04,11,12,05,9.80
2008,04,11,12,06,9.80
2008,04,11,12,07,9.90
2008,04,11,12,08,9.90
2008,04,11,12,09,9.90
2008,04,11,12,10,9.90
2008,04,11,12,11,9.90
2008,04,11,12,12,9.80
2008,04,11,12,13,9.80
2008,04,11,12,14,9.80
2008,04,11,12,15,9.80
2008,04,11,12,16,9.80
2008,04,11,12,17,9.80
2008,04,11,12,18,9.80
2008,04,11,12,19,9.90
2008,04,11,12,20,9.90
2008,04,11,12,21,9.90
2008,04,11,12,22,10.00
2008,04,11,12,23,10.10
2008,04,11,12,24,10.10
2008,04,11,12,25,10.10
2008,04,11,12,26,10.10
2008,04,11,12,27,10.10
2008,04,11,12,28,10.10
2008,04,11,12,29,10.10
2008,04,11,12,30,10.10
2008,04,11,12,31,10.00
2008,04,11,12,32,9.90
2008,04,11,12,33,9.80
2008,04,11,12,34,9.90
2008,04,11,12,35,9.80
2008,04,11,12,36,9.80
2008,04,11,12,37,9.80
2008,04,11,12,38,9.90
2008,04,11,12,39,9.90
2008,04,11,12,40,10.00
2008,04,11,12,41,10.10
2008,04,11,12,42,10.10
2008,04,11,12,43,10.10
2008,04,11,12,44,10.10
2008,04,11,12,45,10.10
2008,04,11,12,46,10.10
2008,04,11,12,47,10.10
2008,04,11,12,48,10.10
2008,04,11,12,49,10.10
2008,04,11,12,50,10.10
2008,04,11,12,51,10.10
2008,04,11,12,52,10.10
2008,04,11,12,53,10.10
2008,04,11,12,54,10.10
2008,04,11,12,55,10.10
2008,04,11,12,56,10.10
2008,04,11,12,57,10.20
2008,04,11,12,58,10.30
2008,04,11,12,59,10.40
2008,04,11,13,00,10.60
2008,04,11,13,01,10.70
2008,04,11,13,02,10.80
2008,04,11,13,03,10.90
2008,04,11,13,04,10.90
2008,04,11,13,05,10.80
2008,04,11,13,06,10.80
2008,04,11,13,07,10.80
2008,04,11,13,08,10.80
2008,04,11,13,09,10.80
2008,04,11,13,10,10.90
2008,04,11,13,11,10.90
2008,04,11,13,12,11.00
2008,04,11,13,13,11.10
2008,04,11,13,14,11.10
2008,04,11,13,15,11.10
2008,04,11,13,16,11.10
2008,04,11,13,17,11.10
2008,04,11,13,18,11.10
2008,04,11,13,19,11.10
2008,04,11,13,20,11.10
2008,04,11,13,21,11.10
2008,04,11,13,22,11.10
2008,04,11,13,23,11.10
2008,04,11,13,24,11.20
2008,04,11,13,25,11.20
2008,04,11,13,26,11.10
2008,04,11,13,27,11.10
2008,04,11,13,28,11.10
2008,04,11,13,29,11.10
2008,04,11,13,30,11.10
2008,04,11,13,31,11.10
2008,04,11,13,32,11.10
2008,04,11,13,33,11.10
2008,04,11,13,34,11.10
2008,04,11,13,35,11.00
2008,04,11,13,36,11.00
2008,04,11,13,37,11.10
2008,04,11,13,38,11.10
2008,04,11,13,39,11.20
2008,04,11,13,40,11.20
2008,04,11,13,41,11.20
2008,04,11,13,42,11.20
2008,04,11,13,43,11.10
2008,04,11,13,44,11.20
2008,04,11,13,45,11.10
2008,04,11,13,46,11.10
2008,04,11,13,47,11.10
2008,04,11,13,48,11.10
2008,04,11,13,49,11.10
2008,04,11,13,50,11.10
2008,04,11,13,51,11.10
2008,04,11,13,52,11.10
2008,04,11,13,53,11.10
2008,04,11,13,54,11.10
2008,04,11,13,55,11.20
2008,04,11,13,56,11.30
2008,04,11,13,57,11.30
2008,04,11,13,58,11.30
2008,04,11,13,59,11.20
2008,04,11,14,00,11.30
2008,04,11,14,01,11.40
2008,04,11,14,02,11.60
2008,04,11,14,03,11.70
2008,04,11,14,04,11.70
2008,04,11,14,05,11.70
2008,04,11,14,06,11.70
2008,04,11,14,07,11.80
2008,04,11,14,08,11.80
2008,04,11,14,09,11.80
2008,04,11,14,10,11.80
2008,04,11,14,11,11.80
2008,04,11,14,12,11.80
2008,04,11,14,13,11.90
2008,04,11,14,14,12.00
2008,04,11,14,15,12.10
2008,04,11,14,16,12.10
2008,04,11,14,17,12.20
2008,04,11,14,18,12.20
2008,04,11,14,19,12.20
2008,04,11,14,20,12.10
2008,04,11,14,21,12.00
2008,04,11,14,22,11.90
2008,04,11,14,23,12.00
2008,04,11,14,24,12.20
2008,04,11,14,25,12.30
2008,04,11,14,26,12.30
2008,04,11,14,27,12.30
2008,04,11,14,28,12.10
2008,04,11,14,29,12.00
2008,04,11,14,30,12.00
2008,04,11,14,31,12.10
2008,04,11,14,32,12.00
2008,04,11,14,33,11.90
2008,04,11,14,34,11.80
2008,04,11,14,35,11.70
2008,04,11,14,36,11.70
2008,04,11,14,37,11.80
2008,04,11,14,38,11.90
2008,04,11,14,39,11.90
2008,04,11,14,40,11.80
2008,04,11,14,41,11.90
2008,04,11,14,42,11.90
2008,04,11,14,43,11.90
2008,04,11,14,44,11.80
2008,04,11,14,45,11.80
2008,04,11,14,46,11.80
2008,04,11,14,47,11.80
2008,04,11,14,48,11.70
2008,04,11,14,49,11.70
2008,04,11,14,50,11.80
2008,04,11,14,51,11.80
2008,04,11,14,52,11.80
2008,04,11,14,53,11.70
2008,04,11,14,54,11.60
2008,04,11,14,55,11.70
2008,04,11,14,56,11.80
2008,04,11,14,57,11.80
2008,04,11,14,58,11.90
2008,04,11,14,59,12.00
2008,04,11,15,00,12.00
2008,04,11,15,01,11.90
2008,04,11,15,02,11.90
2008,04,11,15,03,11.90
2008,04,11,15,04,11.90
2008,04,11,15,05,11.90
2008,04,11,15,06,11.80
2008,04,11,15,07,11.90
2008,04,11,15,08,11.90
2008,04,11,15,09,11.90
2008,04,11,15,10,11.90
2008,04,11,15,11,11.90
2008,04,11,15,12,11.90
2008,04,11,15,13,12.00
2008,04,11,15,14,12.10
2008,04,11,15,15,12.10
2008,04,11,15,16,12.10
2008,04,11,15,17,12.30
2008,04,11,15,18,12.50
2008,04,11,15,19,12.60
2008,04,11,15,20,12.60
2008,04,11,15,21,12.60
2008,04,11,15,22,12.70
2008,04,11,15,23,12.90
2008,04,11,15,24,13.00
2008,04,11,15,25,13.00
2008,04,11,15,26,13.00
2008,04,11,15,27,13.00
2008,04,11,15,28,13.10
2008,04,11,15,29,13.00
2008,04,11,15,30,13.10
2008,04,11,15,31,13.20
2008,04,11,15,32,13.30
2008,04,11,15,33,13.30
2008,04,11,15,34,13.30
2008,04,11,15,35,13.30
2008,04,11,15,36,13.30
2008,04,11,15,37,13.10
2008,04,11,15,38,13.10
2008,04,11,15,39,13.10
2008,04,11,15,40,13.20
2008,04,11,15,41,13.40
2008,04,11,15,42,13.50
2008,04,11,15,43,13.60
2008,04,11,15,44,13.70
2008,04,11,15,45,13.50
2008,04,11,15,46,13.20
2008,04,11,15,47,12.90
2008,04,11,15,48,12.80
2008,04,11,15,49,12.70
2008,04,11,15,50,12.60
2008,04,11,15,51,12.50
2008,04,11,15,52,12.50
2008,04,11,15,53,12.40
2008,04,11,15,54,12.40
2008,04,11,15,55,12.30
2008,04,11,15,56,12.40
2008,04,11,15,57,12.50
2008,04,11,15,58,12.60
2008,04,11,15,59,12.70
2008,04,11,16,00,12.60
2008,04,11,16,01,12.60
2008,04,11,16,02,12.60
2008,04,11,16,03,12.70
2008,04,11,16,04,12.70
2008,04,11,16,05,12.70
2008,04,11,16,06,12.60
2008,04,11,16,07,12.60
2008,04,11,16,08,12.50
2008,04,11,16,09,12.40
2008,04,11,16,10,12.50
2008,04,11,16,11,12.60
2008,04,11,16,12,12.60
2008,04,11,16,13,12.60
2008,04,11,16,14,12.60
2008,04,11,16,15,12.60
2008,04,11,16,16,12.60
2008,04,11,16,17,12.60
2008,04,11,16,18,12.60
2008,04,11,16,19,12.50
2008,04,11,16,20,12.50
2008,04,11,16,21,12.50
2008,04,11,16,22,12.50
2008,04,11,16,23,12.60
2008,04,11,16,24,12.70
2008,04,11,16,25,12.70
2008,04,11,16,26,12.60
2008,04,11,16,27,12.60
2008,04,11,16,28,12.60
2008,04,11,16,29,12.60
2008,04,11,16,30,12.60
2008,04,11,16,31,12.80
2008,04,11,16,32,12.80
2008,04,11,16,33,13.00
2008,04,11,16,34,13.00
2008,04,11,16,35,13.10
2008,04,11,16,36,13.10
2008,04,11,16,37,13.10
2008,04,11,16,38,13.10
2008,04,11,16,39,13.20
2008,04,11,16,40,13.20
2008,04,11,16,41,13.20
2008,04,11,16,42,13.10
2008,04,11,16,43,13.00
2008,04,11,16,44,13.00
2008,04,11,16,45,13.00
2008,04,11,16,46,13.10
2008,04,11,16,47,13.00
2008,04,11,16,48,13.10
2008,04,11,16,49,13.00
2008,04,11,16,50,13.00
2008,04,11,16,51,13.10
2008,04,11,16,52,13.10
2008,04,11,16,53,13.20
2008,04,11,16,54,13.20
2008,04,11,16,55,13.20
2008,04,11,16,56,13.20
2008,04,11,16,57,13.20
2008,04,11,16,58,13.20
2008,04,11,16,59,13.20
2008,04,11,17,00,13.10
2008,04,11,17,01,13.20
2008,04,11,17,02,13.30
2008,04,11,17,03,13.20
2008,04,11,17,04,13.20
2008,04,11,17,05,13.30
2008,04,11,17,06,13.40
2008,04,11,17,07,13.50
2008,04,11,17,08,13.50
2008,04,11,17,09,13.40
2008,04,11,17,10,13.20
2008,04,11,17,11,13.10
2008,04,11,17,12,13.00
2008,04,11,17,13,12.90
2008,04,11,17,14,12.90
2008,04,11,17,15,12.90
2008,04,11,17,16,12.90
2008,04,11,17,17,12.80
2008,04,11,17,18,12.70
2008,04,11,17,19,12.70
2008,04,11,17,20,12.70
2008,04,11,17,21,12.70
2008,04,11,17,22,12.70
2008,04,11,17,23,12.60
2008,04,11,17,24,12.50
2008,04,11,17,25,12.40
2008,04,11,17,26,12.50
2008,04,11,17,27,12.50
2008,04,11,17,28,12.60
2008,04,11,17,29,12.50
2008,04,11,17,30,12.30
2008,04,11,17,31,12.30
2008,04,11,17,32,12.20
2008,04,11,17,33,12.20
2008,04,11,17,34,12.10
2008,04,11,17,35,12.10
2008,04,11,17,36,12.10
2008,04,11,17,37,12.10
2008,04,11,17,38,12.10
2008,04,11,17,39,12.10
2008,04,11,17,40,12.10
2008,04,11,17,41,12.00
2008,04,11,17,42,12.00
2008,04,11,17,43,12.00
2008,04,11,17,44,12.00
2008,04,11,17,45,11.90
2008,04,11,17,46,11.80
2008,04,11,17,47,11.80
2008,04,11,17,48,11.80
2008,04,11,17,49,11.80
2008,04,11,17,50,11.90
2008,04,11,17,51,12.00
2008,04,11,17,52,12.00